DB0TFM-6 Weather Reports


Display with metric or nautical units.
time (UTC)temp
F
wind
direction
speed
MPH
gust
MPH
rain 1hr
in
rain 24hr
in
rain mn
in
humidity
%
barometer
mb
20191015182616 0 0.0 0.0 0.00 0.00 0.00
20191015182311 64 180 2.0 7.0 0.00 0.00 0.07 99
20191015181806 65 180 1.0 6.0 0.00 0.00 0.07 98
20191015181615 0 0.0 0.0 0.00 0.00 0.00
20191015181300 65 180 2.0 5.0 0.00 0.00 0.07 98
20191015180756 65 180 3.0 5.0 0.00 0.00 0.07 99
20191015180617 0 0.0 0.0 0.00 0.00 0.00
20191015180250 58 180 3.0 4.0 0.00 0.00 0.07 99
20191015175616 0 0.0 0.0 0.00 0.00 0.00
20191015175242 58 180 4.0 5.0 0.00 0.00 0.06 99
20191015174738 64 180 3.0 5.0 0.00 0.00 0.06 99
20191015174616 0 0.0 0.0 0.00 0.00 0.00
20191015174232 64 180 3.0 5.0 0.00 0.00 0.05 99
20191015173729 64 180 4.0 20.0 0.00 0.00 0.05 98
20191015173617 0 0.0 0.0 0.00 0.00 0.00
20191015173224 64 180 15.0 5.0 0.00 0.00 0.05 99
20191015172620 0 0.0 0.0 0.00 0.00 0.00
20191015172218 64 180 0.0 8.0 0.00 0.00 0.04 99
20191015171710 64 180 0.0 5.0 0.00 0.00 0.04 99
20191015171621 0 0.0 0.0 0.00 0.00 0.00
20191015170702 64 180 4.0 5.0 0.00 0.00 0.04 99
20191015170617 0 0.0 0.0 0.00 0.00 0.00
20191015165616 0 0.0 0.0 0.00 0.00 0.00
20191015165147 65 180 2.0 4.0 0.00 0.00 0.03 100
20191015164649 0 0.0 0.0 0.00 0.00 0.00
20191015164644 65 180 0.0 4.0 0.00 0.00 0.03 100
20191015164615 0 0.0 0.0 0.00 0.00 0.00
20191015164140 64 180 0.0 4.0 0.00 0.00 0.03 100
20191015163615 0 0.0 0.0 0.00 0.00 0.00
20191015163129 65 180 0.0 4.0 0.00 0.00 0.02 100
20191015162626 64 180 0.0 9.0 0.00 0.00 0.02 100
20191015162616 0 0.0 0.0 0.00 0.00 0.00
20191015162124 64 180 3.0 5.0 0.00 0.00 0.01 100
20191015161620 0 0.0 0.0 0.00 0.00 0.00
20191015161616 65 180 3.0 4.0 0.00 0.00 0.01 99
20191015161114 65 180 0.0 4.0 0.00 0.00 0.01 100
20191015160616 0 0.0 0.0 0.00 0.00 0.00
20191015160608 65 180 0.0 2.0 0.00 0.00 0.01 100
20191015160205 65 180 0.0 4.0 0.00 0.00 0.01 100
20191015160102 65 180 0.0 4.0 0.00 0.00 0.01 100
20191015155615 0 0.0 0.0 0.00 0.00 0.00
20191015155558 65 180 0.0 3.0 0.00 0.00 0.01 100
20191015155056 65 180 0.0 4.0 0.00 0.00 0.01 100
20191015154616 0 0.0 0.0 0.00 0.00 0.00
20191015154044 65 180 0.0 2.0 0.00 0.00 0.01 100
20191015153615 0 0.0 0.0 0.00 0.00 0.00
20191015153541 65 180 0.0 0.0 0.00 0.00 0.01 99
20191015152616 0 0.0 0.0 0.00 0.00 0.00
20191015152202 66 180 0.0 0.0 0.00 0.00 0.00 100
20191015152026 66 180 0.0 0.0 0.00 0.00 0.00 100
20191015151617 0 0.0 0.0 0.00 0.00 0.00
20191015151522 66 180 0.0 0.0 0.00 0.00 0.00 100
20191015151019 66 180 0.0 0.0 0.00 0.00 0.00 100
20191015150615 0 0.0 0.0 0.00 0.00 0.00
20191015150514 66 180 0.0 0.0 0.00 0.00 0.00 100
20191015150010 66 180 0.0 0.0 0.00 0.00 0.00 99
20191015145615 0 0.0 0.0 0.00 0.00 0.00
20191015145505 66 180 0.0 0.0 0.00 0.00 0.00 99
20191015145000 66 180 0.0 0.0 0.00 0.00 0.00 98
20191015144616 0 0.0 0.0 0.00 0.00 0.00
20191015144457 66 180 0.0 2.0 0.00 0.00 0.00 98
20191015143615 0 0.0 0.0 0.00 0.00 0.00
20191015143449 65 180 0.0 0.0 0.00 0.00 0.00 98
20191015142618 0 0.0 0.0 0.00 0.00 0.00
20191015141932 68 180 0.0 0.0 0.00 0.00 0.00 97
20191015141616 0 0.0 0.0 0.00 0.00 0.00
20191015141430 68 180 0.0 0.0 0.00 0.00 0.00 97
20191015140925 67 180 0.0 3.0 0.00 0.00 0.00 97
20191015140618 0 0.0 0.0 0.00 0.00 0.00
20191015135615 0 0.0 0.0 0.00 0.00 0.00
20191015135410 61 180 0.0 4.0 0.00 0.00 0.00 97
20191015134618 0 0.0 0.0 0.00 0.00 0.00
20191015134401 68 180 0.0 3.0 0.00 0.00 0.00 96
20191015133859 68 180 3.0 4.0 0.00 0.00 0.00 96
20191015133616 0 0.0 0.0 0.00 0.00 0.00
20191015133353 68 180 0.0 2.0 0.00 0.00 0.00 96
20191015132615 0 0.0 0.0 0.00 0.00 0.00
20191015132344 69 180 0.0 4.0 0.00 0.00 0.00 96
20191015131838 69 180 0.0 18.0 0.00 0.00 0.00 95
20191015131617 0 0.0 0.0 0.00 0.00 0.00
20191015131335 69 180 0.0 18.0 0.00 0.00 0.00 95
20191015130616 0 0.0 0.0 0.00 0.00 0.00
20191015125614 0 0.0 0.0 0.00 0.00 0.00
20191015125316 69 180 15.0 21.0 0.00 0.00 0.00 97
20191015124811 69 180 17.0 19.0 0.00 0.00 0.00 98
20191015124617 0 0.0 0.0 0.00 0.00 0.00
20191015123803 68 180 18.0 21.0 0.00 0.00 0.00 97
20191015123615 0 0.0 0.0 0.00 0.00 0.00
20191015123259 69 180 16.0 20.0 0.00 0.00 0.00 97
20191015122756 69 180 16.0 20.0 0.00 0.00 0.00 97
20191015122648 0 0.0 0.0 0.00 0.00 0.00
20191015122616 0 0.0 0.0 0.00 0.00 0.00
20191015121616 0 0.0 0.0 0.00 0.00 0.00
20191015120742 69 180 21.0 21.0 0.00 0.00 0.00 96
20191015120615 0 0.0 0.0 0.00 0.00 0.00
20191015115726 69 180 0.0 3.0 0.00 0.00 0.00 95
20191015115615 0 0.0 0.0 0.00 0.00 0.00
20191015115223 69 180 0.0 0.0 0.00 0.00 0.00 96
20191015114723 69 180 0.0 0.0 0.00 0.00 0.00 96
20191015114615 0 0.0 0.0 0.00 0.00 0.00
20191015114213 69 180 0.0 1.0 0.00 0.00 0.00 95
20191015113615 0 0.0 0.0 0.00 0.00 0.00
20191015112615 0 0.0 0.0 0.00 0.00 0.00
20191015112156 70 180 0.0 5.0 0.00 0.00 0.00 93
20191015111652 70 180 0.0 4.0 0.00 0.00 0.00 93
20191015111615 0 0.0 0.0 0.00 0.00 0.00
20191015111145 70 180 0.0 0.0 0.00 0.00 0.00 94
20191015110645 70 180 0.0 0.0 0.00 0.00 0.00 93
20191015110618 0 0.0 0.0 0.00 0.00 0.00
20191015105616 0 0.0 0.0 0.00 0.00 0.00
20191015104617 0 0.0 0.0 0.00 0.00 0.00
20191015104121 69 180 0.0 0.0 0.00 0.00 0.00 91
20191015103617 69 180 0.0 0.0 0.00 0.00 0.00 92
20191015102615 0 0.0 0.0 0.00 0.00 0.00
20191015101616 0 0.0 0.0 0.00 0.00 0.00
20191015101556 70 180 20.0 20.0 0.00 0.00 0.00 89
20191015101052 71 180 20.0 18.0 0.00 0.00 0.00 86
20191015100616 0 0.0 0.0 0.00 0.00 0.00
20191015100547 71 180 14.0 20.0 0.00 0.00 0.00 80
20191015100044 71 180 15.0 21.0 0.00 0.00 0.00 82
20191015095615 0 0.0 0.0 0.00 0.00 0.00
20191015095540 71 180 4.0 4.0 0.00 0.00 0.00 78
20191015095034 71 180 0.0 5.0 0.00 0.00 0.00 76
20191015094615 0 0.0 0.0 0.00 0.00 0.00
20191015094529 71 180 0.0 0.0 0.00 0.00 0.00 76
20191015094025 72 180 0.0 0.0 0.00 0.00 0.00 75
20191015093615 0 0.0 0.0 0.00 0.00 0.00
20191015093526 72 180 0.0 0.0 0.00 0.00 0.00 71
20191015093016 72 180 0.0 3.0 0.00 0.00 0.00 67
20191015092615 0 0.0 0.0 0.00 0.00 0.00
20191015092512 73 180 0.0 4.0 0.00 0.00 0.00 64
20191015092008 73 180 0.0 0.0 0.00 0.00 0.00 63
20191015091615 0 0.0 0.0 0.00 0.00 0.00
20191015091509 73 180 0.0 0.0 0.00 0.00 0.00 55
20191015090957 73 180 0.0 0.0 0.00 0.00 0.00 61
20191015090615 0 0.0 0.0 0.00 0.00 0.00
20191015090458 73 180 0.0 0.0 0.00 0.00 0.00 59
20191015085948 73 180 0.0 0.0 0.00 0.00 0.00 58
20191015085615 0 0.0 0.0 0.00 0.00 0.00
20191015085446 74 180 0.0 0.0 0.00 0.00 0.00 53
20191015084941 74 180 0.0 0.0 0.00 0.00 0.00 52
20191015084615 0 0.0 0.0 0.00 0.00 0.00
20191015083932 74 180 0.0 0.0 0.00 0.00 0.00 50
20191015083617 0 0.0 0.0 0.00 0.00 0.00
20191015082653 0 0.0 0.0 0.00 0.00 0.00
20191015082614 0 0.0 0.0 0.00 0.00 0.00
20191015081914 75 180 0.0 5.0 0.00 0.00 0.00 47
20191015081614 0 0.0 0.0 0.00 0.00 0.00
20191015080904 74 180 0.0 5.0 0.00 0.00 0.00 48
20191015080614 0 0.0 0.0 0.00 0.00 0.00
20191015080359 75 180 3.0 3.0 0.00 0.00 0.00 48
20191015075856 74 180 0.0 9.0 0.00 0.00 0.00 49
20191015075614 0 0.0 0.0 0.00 0.00 0.00
20191015075351 74 180 0.0 1.0 0.00 0.00 0.00 48
20191015074845 74 180 0.0 1.0 0.00 0.00 0.00 49
20191015074615 0 0.0 0.0 0.00 0.00 0.00
20191015073851 74 180 0.0 3.0 0.00 0.00 0.00 48
20191015073614 0 0.0 0.0 0.00 0.00 0.00
20191015073336 74 180 0.0 3.0 0.00 0.00 0.00 48
20191015072616 0 0.0 0.0 0.00 0.00 0.00
20191015072332 74 180 0.0 6.0 0.00 0.00 0.00 48
20191015071614 0 0.0 0.0 0.00 0.00 0.00
20191015070812 74 180 1.0 7.0 0.00 0.00 0.00 50
20191015070616 0 0.0 0.0 0.00 0.00 0.00
20191015065800 74 180 0.0 4.0 0.00 0.00 0.00 52
20191015065616 0 0.0 0.0 0.00 0.00 0.00
20191015065258 74 180 0.0 10.0 0.00 0.00 0.00 54
20191015064614 0 0.0 0.0 0.00 0.00 0.00
20191015064247 74 180 0.0 21.0 0.00 0.00 0.00 53
20191015063742 74 180 0.0 12.0 0.00 0.00 0.00 54
20191015063614 0 0.0 0.0 0.00 0.00 0.00
20191015062736 74 180 1.0 15.0 0.00 0.00 0.00 54
20191015062614 0 0.0 0.0 0.00 0.00 0.00
20191015062231 74 180 0.0 10.0 0.00 0.00 0.00 53
20191015061729 74 180 0.0 7.0 0.00 0.00 0.00 53
20191015061616 0 0.0 0.0 0.00 0.00 0.00
20191015061223 74 180 0.0 8.0 0.00 0.00 0.00 52
20191015060715 74 180 1.0 7.0 0.00 0.00 0.00 53
20191015060620 0 0.0 0.0 0.00 0.00 0.00
20191015055614 0 0.0 0.0 0.00 0.00 0.00
20191015055204 74 180 0.0 7.0 0.00 0.00 0.00 55
20191015054657 74 180 0.0 20.0 0.00 0.00 0.00 54
20191015054614 0 0.0 0.0 0.00 0.00 0.00
20191015053614 0 0.0 0.0 0.00 0.00 0.00
20191015052640 74 180 0.0 5.0 0.00 0.00 0.00 54
20191015052614 0 0.0 0.0 0.00 0.00 0.00
20191015052139 74 180 1.0 6.0 0.00 0.00 0.00 54
20191015051630 74 180 1.0 17.0 0.00 0.00 0.00 53
20191015051615 0 0.0 0.0 0.00 0.00 0.00
20191015051128 74 180 5.0 5.0 0.00 0.00 0.00 53
20191015050622 73 180 0.0 7.0 0.00 0.00 0.00 52
20191015050614 0 0.0 0.0 0.00 0.00 0.00
20191015050117 74 180 1.0 4.0 0.00 0.00 0.00 52
20191015045615 74 180 4.0 4.0 0.00 0.00 0.00 50
20191015045108 74 180 0.0 5.0 0.00 0.00 0.00 50
20191015044605 74 180 0.0 4.0 0.00 0.00 0.00 50
20191015044100 74 180 0.0 2.0 0.00 0.00 0.00 49
20191015043613 0 0.0 0.0 0.00 0.00 0.00
20191015043555 74 180 2.0 3.0 0.00 0.00 0.00 49
20191015043053 74 180 0.0 5.0 0.00 0.00 0.00 49
20191015042613 0 0.0 0.0 0.00 0.00 0.00
20191015042546 74 180 0.0 5.0 0.00 0.00 0.00 49
20191015042042 74 180 0.0 7.0 0.00 0.00 0.00 50
20191015041614 0 0.0 0.0 0.00 0.00 0.00
20191015041536 74 180 0.0 3.0 0.00 0.00 0.00 49
20191015040615 0 0.0 0.0 0.00 0.00 0.00
20191015040530 75 180 0.0 4.0 0.00 0.00 0.00 50
20191015035613 0 0.0 0.0 0.00 0.00 0.00
20191015035520 75 180 2.0 2.0 0.00 0.00 0.00 48
20191015035014 75 180 0.0 3.0 0.00 0.00 0.00 48
20191015034614 0 0.0 0.0 0.00 0.00 0.00
20191015034509 74 180 0.0 4.0 0.00 0.00 0.00 49
20191015034005 74 180 0.0 2.0 0.00 0.00 0.00 50
20191015033614 0 0.0 0.0 0.00 0.00 0.00
20191015033505 74 180 1.0 3.0 0.00 0.00 0.00 51
20191015032957 74 180 0.0 1.0 0.00 0.00 0.00 51
20191015032614 0 0.0 0.0 0.00 0.00 0.00
20191015032452 75 180 0.0 2.0 0.00 0.00 0.00 51
20191015031947 74 180 0.0 0.0 0.00 0.00 0.00 50
20191015031613 0 0.0 0.0 0.00 0.00 0.00
20191015031442 74 180 0.0 0.0 0.00 0.00 0.00 49
20191015030939 74 180 0.0 0.0 0.00 0.00 0.00 49
20191015030613 0 0.0 0.0 0.00 0.00 0.00
20191015025614 0 0.0 0.0 0.00 0.00 0.00
20191015025424 73 180 0.0 0.0 0.00 0.00 0.00 47
20191015024922 72 180 0.0 0.0 0.00 0.00 0.00 47
20191015024615 0 0.0 0.0 0.00 0.00 0.00
20191015020552 0 0.0 0.0 0.00 0.00 0.00
20191015020434 76 180 0.0 0.0 0.00 0.00 0.00 54
20191015015932 76 180 0.0 0.0 0.00 0.00 0.00 54
20191015015556 0 0.0 0.0 0.00 0.00 0.00
20191015015426 76 180 0.0 0.0 0.00 0.00 0.00 54
20191015014552 0 0.0 0.0 0.00 0.00 0.00
20191015013913 76 180 0.0 0.0 0.00 0.00 0.00 53
20191015013554 0 0.0 0.0 0.00 0.00 0.00
20191015012909 76 180 0.0 0.0 0.00 0.00 0.00 53
20191015012600 0 0.0 0.0 0.00 0.00 0.00
20191015011854 76 180 0.0 0.0 0.00 0.00 0.00 54
20191015011555 0 0.0 0.0 0.00 0.00 0.00
20191015011348 76 180 0.0 0.0 0.00 0.00 0.00 54
20191015010847 76 180 0.0 0.0 0.00 0.00 0.00 54
20191015010552 0 0.0 0.0 0.00 0.00 0.00
20191015010340 76 180 0.0 0.0 0.00 0.00 0.00 53
20191015005553 0 0.0 0.0 0.00 0.00 0.00
20191015005331 76 180 0.0 0.0 0.00 0.00 0.00 54
20191015004554 0 0.0 0.0 0.00 0.00 0.00
20191015003555 0 0.0 0.0 0.00 0.00 0.00
20191015003316 76 180 0.0 0.0 0.00 0.00 0.00 55
20191015002808 76 180 0.0 0.0 0.00 0.00 0.00 54
20191015002553 0 0.0 0.0 0.00 0.00 0.00
20191015002303 76 180 0.0 0.0 0.00 0.00 0.00 54
20191015001802 76 180 0.0 1.0 0.00 0.00 0.00 54
20191015001553 0 0.0 0.0 0.00 0.00 0.00
20191015000752 76 180 0.0 0.0 0.00 0.00 0.00 54
20191015000552 0 0.0 0.0 0.00 0.00 0.00
20191014235742 76 180 0.0 0.0 0.00 0.00 0.00 54
20191014235601 0 0.0 0.0 0.00 0.00 0.00
20191014235239 76 180 0.0 0.0 0.00 0.00 0.00 54
20191014234732 76 180 0.0 0.0 0.00 0.00 0.00 54
20191014234231 76 180 0.0 0.0 0.00 0.00 0.00 54
20191014233723 76 180 0.0 0.0 0.00 0.00 0.00 55
20191014233554 0 0.0 0.0 0.00 0.00 0.00
20191014233223 76 180 0.0 0.0 0.00 0.00 0.00 55
20191014232716 76 180 0.0 0.0 0.00 0.00 0.00 55
20191014232555 0 0.0 0.0 0.00 0.00 0.00
20191014232209 76 180 0.0 0.0 0.00 0.00 0.00 55
20191014231554 0 0.0 0.0 0.00 0.00 0.00
20191014230553 0 0.0 0.0 0.00 0.00 0.00
20191014225647 76 180 0.0 0.0 0.00 0.00 0.00 55
20191014225554 0 0.0 0.0 0.00 0.00 0.00
20191014224640 76 180 0.0 0.0 0.00 0.00 0.00 55
20191014224555 0 0.0 0.0 0.00 0.00 0.00
20191014224134 76 180 0.0 3.0 0.00 0.00 0.00 54
20191014223630 76 180 0.0 0.0 0.00 0.00 0.00 54
20191014223556 0 0.0 0.0 0.00 0.00 0.00
20191014223127 76 180 0.0 0.0 0.00 0.00 0.00 54
20191014222622 76 180 0.0 2.0 0.00 0.00 0.00 53
20191014222551 0 0.0 0.0 0.00 0.00 0.00
20191014222116 76 180 0.0 0.0 0.00 0.00 0.00 54
20191014221612 76 180 0.0 0.0 0.00 0.00 0.00 54
20191014221551 0 0.0 0.0 0.00 0.00 0.00
20191014221109 76 180 0.0 0.0 0.00 0.00 0.00 54
20191014220608 76 180 0.0 0.0 0.00 0.00 0.00 54
20191014220551 0 0.0 0.0 0.00 0.00 0.00
20191014220057 76 180 0.0 0.0 0.00 0.00 0.00 54
20191014215559 76 180 0.0 3.0 0.00 0.00 0.00 53
20191014215551 0 0.0 0.0 0.00 0.00 0.00
20191014215049 76 180 0.0 3.0 0.00 0.00 0.00 53
20191014214553 0 0.0 0.0 0.00 0.00 0.00
20191014214044 75 180 0.0 4.0 0.00 0.00 0.00 54
20191014213552 0 0.0 0.0 0.00 0.00 0.00
20191014213033 75 180 0.0 4.0 0.00 0.00 0.00 55
20191014212551 0 0.0 0.0 0.00 0.00 0.00
20191014212527 75 180 0.0 0.0 0.00 0.00 0.00 54
20191014212023 75 180 0.0 0.0 0.00 0.00 0.00 54
20191014211552 0 0.0 0.0 0.00 0.00 0.00
20191014211520 75 180 0.0 0.0 0.00 0.00 0.00 53
20191014210555 0 0.0 0.0 0.00 0.00 0.00
20191014210509 75 180 0.0 0.0 0.00 0.00 0.00 52
20191014205552 0 0.0 0.0 0.00 0.00 0.00
20191014205459 75 180 0.0 1.0 0.00 0.00 0.00 52
20191014204551 0 0.0 0.0 0.00 0.00 0.00
20191014204451 76 180 0.0 0.0 0.00 0.00 0.00 51
20191014203946 76 180 0.0 4.0 0.00 0.00 0.00 50
20191014203554 0 0.0 0.0 0.00 0.00 0.00
20191014202941 76 180 3.0 4.0 0.00 0.00 0.00 50
20191014202704 0 0.0 0.0 0.00 0.00 0.00
20191014202551 0 0.0 0.0 0.00 0.00 0.00
20191014202433 76 180 0.0 4.0 0.00 0.00 0.00 50
20191014201929 77 180 3.0 3.0 0.00 0.00 0.00 49
20191014201551 0 0.0 0.0 0.00 0.00 0.00
20191014201423 77 180 0.0 0.0 0.00 0.00 0.00 49
20191014200919 77 180 0.0 8.0 0.00 0.00 0.00 49
20191014200551 0 0.0 0.0 0.00 0.00 0.00
20191014200415 77 180 4.0 9.0 0.00 0.00 0.00 48
20191014195912 77 180 0.0 14.0 0.00 0.00 0.00 49
20191014195552 0 0.0 0.0 0.00 0.00 0.00
20191014195406 77 180 4.0 12.0 0.00 0.00 0.00 49
20191014194901 77 180 0.0 10.0 0.00 0.00 0.00 49
20191014193852 76 180 0.0 0.0 0.00 0.00 0.00 49
20191014193552 0 0.0 0.0 0.00 0.00 0.00
20191014193347 76 180 0.0 1.0 0.00 0.00 0.00 49
20191014192554 0 0.0 0.0 0.00 0.00 0.00
20191014192345 77 180 0.0 0.0 0.00 0.00 0.00 49
20191014191552 0 0.0 0.0 0.00 0.00 0.00
20191014190825 77 180 0.0 0.0 0.00 0.00 0.00 47
20191014190552 0 0.0 0.0 0.00 0.00 0.00
20191014190320 78 180 0.0 0.0 0.00 0.00 0.00 47
20191014185552 0 0.0 0.0 0.00 0.00 0.00
20191014185312 78 180 0.0 0.0 0.00 0.00 0.00 47
20191014184808 77 180 0.0 0.0 0.00 0.00 0.00 47
20191014184554 0 0.0 0.0 0.00 0.00 0.00
20191014183757 77 180 0.0 0.0 0.00 0.00 0.00 47
20191014183552 0 0.0 0.0 0.00 0.00 0.00